Location: �mondeville
(49.4591°N, 1.3431°W)
Time: 23:11:18
(UTC+00:00)

USA 267 - Pass Details

Date: 22 October 2019
Orbit: 1101 x 1106 km, 123.0° (Epoch: 12 November)

Event Time Altitude Azimuth Distance (km) Brightness Sun altitude
Rises 04:41:05 0° 58° (ENE) 3,925 7.3 -19.5°
Reaches altitude 10° 04:43:34 10° 56° (ENE) 2,966 6.4 -19.1°
Maximum altitude 04:50:06 74° 333° (NNW) 1,148 3.2 -18.0°
Enters shadow 04:54:10 25° 254° (WSW) 2,063 4.1 -17.3°
